INSAT-3DS

Last updated on Mon Sep 07 2026 00:02:41 GMT+0000 (Coordinated Universal Time)

1 58990U 24033A 26249.60802840 -.00000172 00000+0 00000+0 0 9993 2 58990 0.0574 264.0656 0001405 290.6012 91.9959 1.00269506 47886
UTC large
Height (km)
Speed (km/s)
/
Latitude / Longitude
Inclination (degrees)
Orbital Period (minutes)
Azimuth
Elevation
Range (km)
Doppler Factor

Next 0 passes for location: London (51.5072 / 0.1276)

No passes found over London.
INSAT-3DS